OpenBCM V1.08-5-g2f4a (Linux)

Packet Radio Mailbox

IZ3LSV

[San Dona' di P. JN]

 Login: GUEST





  
I0OJJ  > KEPS     11.05.25 02:44l 354 Lines 16918 Bytes #52 (0) @ AMSAT
BID : ORB25131.1
Read: GUEST
Subj: 2Line Orbital Elements 25131.AMSAT
Path: IZ3LSV<IK6IHL<IK7NXU<HB9ON<DK0WUE<PD0LPM<PI8ZTM<PI8LAP<VE2PKT<PY2BIL<
      LU9DCE<EA2RCF<I0OJJ
Sent: 250511/0025z @:I0OJJ.ITA.EU [Rome] obcm1.08-6-g5b69
From: I0OJJ @ I0OJJ.ITA.EU (Gustavo)
To:   KEPS @ AMSAT
X-Info: This message was generated automatically


QST de W1STR

AMSAT Orbital Elements for Amateur Satellites in TLE Format
From Orbital Analysis Office
New England Sci-Tech STEM Education Center
Natick, MA May 11, 2025
To all radio amateurs


These element sets describe the orbits of various satellites 
in use by the amateur radio community. For details see:
www.amsat.org/keplerian-elements-formats/

A daily update of element sets is available at:
www.amsat.org/tle/daily-bulletin.txt
or without bulletin text:
www.amsat.org/tle/dailytle.txt


AO-07
1 07530U 74089B   25130.74808660 -.00000033  00000-0  82104-4 0  9999
2 07530 101.9939 134.6939 0012238 177.2231   4.3085 12.53688979310320
UO-11
1 14781U 84021B   25130.83811474  .00001662  00000-0  18101-3 0  9992
2 14781  97.7524  97.8014 0009483  77.3416 282.8861 14.89297206218215
AO-27
1 22825U 93061C   25130.42714380  .00000165  00000-0  80090-4 0  9991
2 22825  98.7384 191.8291 0008136 193.6198 166.4766 14.30788980649403
FO-29
1 24278U 96046B   25130.43951756  .00000030  00000-0  63864-4 0  9993
2 24278  98.5794  28.2944 0350895  60.7700 302.8051 13.53246843418692
NOAA-15
1 25338U 98030A   25130.87090722  .00000257  00000-0  12325-3 0  9997
2 25338  98.5371 156.7144 0011500  87.6251 272.6246 14.26962336404166
GO-32
1 25397U 98043D   25130.69562531  .00000096  00000-0  61569-4 0  9994
2 25397  98.9688 109.1942 0000607 353.0509   7.0661 14.24307370394254
ISS
1 25544U 98067A   25130.47784563  .00010091  00000-0  18811-3 0  9998
2 25544  51.6338 133.8645 0002317  95.1602 264.9651 15.49451152509312
NO-44
1 26931U 01043C   25130.60748337  .00000175  00000-0  96646-4 0  9996
2 26931  67.0506 205.3329 0005774 273.3390  86.7051 14.31719975232978
SO-50
1 27607U 02058C   25130.85324587  .00001355  00000-0  18674-3 0  9993
2 27607  64.5527 292.2883 0052775 340.9211  18.9916 14.81546718205032
CO-55
1 27844U 03031E   25130.25491435  .00000458  00000-0  21886-3 0  9991
2 27844  98.6767 138.9192 0008353 276.4349  83.5879 14.23972713134352
CO-57
1 27848U 03031J   25129.97829929  .00000347  00000-0  17264-3 0  9997
2 27848  98.6793 138.6746 0008348 296.9026  63.1299 14.23310166134011
RS-22
1 27939U 03042A   25130.84843023  .00001436  00000-0  23544-3 0  9997
2 27939  98.3259 299.5874 0012724 103.4743  25.6943 14.72276770156453
NOAA-18
1 28654U 05018A   25130.82337911  .00000240  00000-0  15067-3 0  9992
2 28654  98.8420 210.6338 0013767 209.6949 150.3443 14.13594940 29544
CO-58
1 28895U 05043F   25130.38393170  .00002308  00000-0  38467-3 0  9993
2 28895  98.2452 274.3664 0015312  47.0098 313.2389 14.70914769 42504
CO-65
1 32785U 08021C   25130.87150408  .00006552  00000-0  47664-3 0  9998
2 32785  97.7820 101.8247 0008844 320.2151  39.8425 15.04125686924689
AAUSAT2
1 32788U 08021F   25130.43744627  .00866371  32889-3  23399-2 0  9999
2 32788  97.5910 128.6785 0008938 154.2119 205.9603 15.94279486928648
CO-66
1 32791U 08021J   25130.52025430  .00012926  00000-0  63893-3 0  9997
2 32791  97.7259 109.9113 0001353 275.4095  84.6984 15.17980418926012
RS-30
1 32953U 08025A   25130.78570751  .00000028  00000-0  13243-3 0  9994
2 32953  82.5029 245.7030 0020554 111.0366 249.2914 12.43163911769830
NOAA-19
1 33591U 09005A   25130.82501536  .00000239  00000-0  15148-3 0  9992
2 33591  98.9986 195.3604 0014865  88.9173 271.3702 14.13359046837905
SRMSAT
1 37841U 11058D   25130.29035178  .00000486  00000-0  12038-3 0  9999
2 37841  19.9734 337.8432 0011797  91.8306  85.7102 14.11426328700822
ZACUBE-1
1 39417U 13066B   25130.43054978  .00005691  00000-0  49754-3 0  9994
2 39417  97.7782  87.6150 0045441 150.3132 210.0683 14.96359323620403
Delfi-N3xt
1 39428U 13066N   25130.50565689  .00007786  00000-0  79777-3 0  9995
2 39428  97.8365  48.5033 0087406  99.3123 261.7991 14.87907624614601
GOMX-1
1 39430U 13066Q   25130.82719036  .00001761  00000-0  28109-3 0  9990
2 39430  97.6870 351.3143 0131288 287.9491  70.7440 14.67531019611042
LO-74
1 39440U 13066AA  25130.58848555  .00004907  00000-0  50095-3 0  9997
2 39440  97.8481  75.3641 0060485 279.4754  79.9630 14.89729936616977
AO-73
1 39444U 13066AE  25130.43716494  .00008155  00000-0  61666-3 0  9996
2 39444  97.7802  92.2461 0042630 127.1965 233.3163 15.01877279619069
DTUSAT-2
1 40030U 14033W   25130.56550278  .00007187  00000-0  47286-3 0  9990
2 40030  98.0533 100.9471 0010208 149.9930 210.1884 15.07850731591876
EO-80
1 40032U 14033Y   25130.72011555  .00007997  00000-0  52445-3 0  9992
2 40032  98.0418 100.8051 0010616  99.2238 261.0190 15.07925137592390
LILACSAT-2
1 40908U 15049K   25130.82227313  .00011934  00000-0  31882-3 0  9992
2 40908  97.5075 150.4629 0007322 264.0756  95.9654 15.38224059533656
IO-86
1 40931U 15052B   25038.81889873  .00001817  00000-0  15548-3 0  9993
2 40931   6.0001 108.1159 0012838 187.7041 172.2889 14.78568669506492
Horyu-4
1 41340U 16012D   25130.26584293  .00029887  00000-0  83248-3 0  9994
2 41340  30.9974 335.5997 0007012  91.5938 268.5510 15.35558273508129
Lapan A3
1 41603U 16040E   25130.86881649  .00003663  00000-0  12979-3 0  9995
2 41603  97.1372 136.6464 0011683  25.4713 334.7101 15.29652040493241
CAS-2T
1 41847U 16066G   25130.80454803  .00000854  00000-0  13213-3 0  9996
2 41847  98.4205 205.5241 0345143 268.5843  87.5794 14.43400117446727
CAS-4B
1 42759U 17034B   25130.46748796  .00062508  00000-0  75715-3 0  9993
2 42759  43.0063 140.8524 0017878  79.6318 280.6560 15.59604220437896
CAS-4A
1 42761U 17034D   25130.71471564  .00063923  00000-0  74282-3 0  9990
2 42761  43.0097 136.8355 0019125  86.0285 274.2765 15.60648582437959
TechnoSat
1 42829U 17042E   25130.72431526  .00003453  00000-0  27046-3 0  9997
2 42829  97.3926 300.8632 0014652  27.4227 332.7768 15.01549565426242
AO-91
1 43017U 17073E   25130.19776739  .00010008  00000-0  51929-3 0  9991
2 43017  97.5286   1.7432 0172720 270.1220  88.0215 15.04263695404647
S-Net D
1 43186U 18014G   25130.24839663  .00006329  00000-0  37696-3 0  9992
2 43186  97.5659  33.4671 0008358 341.7437  18.3492 15.11527327397798
S-Net B
1 43187U 18014H   25130.45200352  .00006412  00000-0  38197-3 0  9993
2 43187  97.5666  33.6390 0008882 334.9859  25.0939 15.11511315397826
S-Net A
1 43188U 18014J   25130.31507995  .00006340  00000-0  37749-3 0  9994
2 43188  97.5671  33.6493 0008793 336.4268  23.6558 15.11533620397801
S-Net C
1 43189U 18014K   25130.45432724  .00006516  00000-0  38803-3 0  9994
2 43189  97.5692  33.7963 0010042 326.0793  33.9794 15.11508771396372
Ten-Koh
1 43677U 18084G   25130.45408742  .00003075  00000-0  24954-3 0  9995
2 43677  98.0891 301.5148 0006756  26.9345 333.2227 15.00438138355726
PO-101
1 43678U 18084H   25130.86937078  .00002220  00000-0  19236-3 0  9998
2 43678  98.1009 305.8666 0008593  29.2230 330.9470 14.98193638355937
QO-100
1 43700U 18090A   25130.82336591  .00000157  00000-0  00000+0 0  9992
2 43700   0.0077 311.8542 0002251 135.1971 104.0191  1.00274036 23881
MinXSS-2
1 43758U 18099A   25130.87331325  .00016210  00000-0  65493-3 0  9997
2 43758  97.5038 196.8311 0010689 255.2392 104.7661 15.24784682352442
AO-95
1 43770U 18099N   25130.10768967  .00010544  00000-0  54098-3 0  9996
2 43770  97.4939 188.5389 0009361 323.3520  36.7072 15.16681585351935
RANGE-A
1 43773U 18099R   25130.89234685  .00005333  00000-0  34259-3 0  9997
2 43773  97.4502 180.1564 0009833 296.4930  63.5290 15.08812567351742
MOVE-II
1 43780U 18099Y   25130.19285637  .00194767  00000-0  19653-2 0  9991
2 43780  97.4680 203.7722 0005828 218.2206 141.8641 15.64716978353038
SNUSat 2
1 43782U 18099AA  25130.41000231  .00009895  00000-0  54530-3 0  9994
2 43782  97.4625 185.8325 0010538 254.2910 105.7160 15.14152436351934
SnugLite
1 43784U 18099AC  25130.87006193  .00009208  00000-0  46893-3 0  9990
2 43784  97.4436 185.7863 0002077 235.8208 124.2829 15.17011896352134
ITASat 1
1 43786U 18099AE  25130.64732541  .00006634  00000-0  38334-3 0  9991
2 43786  97.4586 185.6613 0013020 313.5123  46.5025 15.12553197351935
EAGLET 1
1 43790U 18099AJ  25130.77534618  .00004979  00000-0  32026-3 0  9997
2 43790  97.4784 185.8387 0010627 293.8117  66.1998 15.08797627351573
ESEO
1 43792U 18099AL  25130.56707716  .00001499  00000-0  11718-3 0  9996
2 43792  97.4468 179.2992 0011175 267.2776  92.7170 15.02485033351316
CSIM
1 43793U 18099AM  25130.80532872  .00133808  00000-0  13698-2 0  9991
2 43793  97.4844 206.6463 0007821 216.5878 143.4848 15.64528632352976
JO-97
1 43803U 18099AX  25130.11407340  .00013066  00000-0  60670-3 0  9994
2 43803  97.4686 189.4749 0006341 242.1602 117.8991 15.20126968352144
Suomi 100
1 43804U 18099AY  25130.14643335  .00010264  00000-0  51013-3 0  9992
2 43804  97.4754 188.8877 0011079 248.9915 111.0134 15.17789405352086
ISAT
1 43879U 18111D   25130.33153645  .00026517  00000-0  94842-3 0  9995
2 43879  97.5983  44.0812 0006864 316.3811  43.6885 15.28756857349071
UWE-4
1 43880U 18111E   25130.56314753  .00017016  00000-0  68234-3 0  9991
2 43880  97.5927  42.9991 0010663 325.3784  34.6758 15.25027647349059
Sparrow
1 43881U 18111F   25130.27167224  .00028042  00000-0  96808-3 0  9998
2 43881  97.6122  46.7831 0006708   7.3813 352.7525 15.29903760349158
Prox-1
1 44339U 19036A   25130.67503306  .00012109  00000-0  15536-2 0  9998
2 44339  23.9966 258.1427 0008111  88.8199 271.3227 14.79353081313678
SONATE
1 44400U 19038Q   25130.57023294  .00171084  00000-0  85679-3 0  9995
2 44400  97.6936 153.7767 0002634  37.3011 322.8439 15.81308951324810
Taurus 1
1 44530U 19059C   25130.82468843  .00006764  00000-0  12570-2 0  9994
2 44530  98.6032 268.8197 0010853 129.1191 231.0977 14.65469422299583
